CSG-2

Last updated on Mon Sep 07 2026 00:02:46 GMT+0000 (Coordinated Universal Time)

1 51444U 22008A 26249.57031537 -.00000289 00000+0 -29786-4 0 9990 2 51444 97.8918 72.0059 0001426 80.7130 279.4245 14.82146831248642
UTC large
Height (km)
Speed (km/s)
/
Latitude / Longitude
Inclination (degrees)
Orbital Period (minutes)
Azimuth
Elevation
Range (km)
Doppler Factor

Next 0 passes for location: London (51.5072 / 0.1276)

No passes found over London.
CSG-2